| time (UTC) | temp C | wind direction | speed KPH | gust KPH | rain 1hr cm | rain 24hr cm | rain mn cm | humidity % | barometer mb |
| 20260505063516 | 14 | 72 | 0.0 | 1.6 | 0.00 | 0.00 | 0.00 | 70 | 1014.1 |
| 20260505063031 | 14 | 219 | 0.0 | 1.6 | 0.00 | 0.00 | 0.00 | 70 | 1014.0 |
| 20260505062516 | 13 | 0 | 0.0 | 1.6 | 0.00 | 0.00 | 0.00 | 70 | 1014.0 |
| 20260505062015 | 13 | 0 | 0.0 | 1.6 | 0.00 | 0.00 | 0.00 | 70 | 1014.0 |
| 20260505061540 | 13 | 0 | 0.0 | 0.0 | 0.00 | 0.00 | 0.00 | 71 | 1014.0 |
| 20260505061017 | 13 | 0 | 0.0 | 0.0 | 0.00 | 0.00 | 0.00 | 70 | 1013.9 |
| 20260505060521 | 13 | 0 | 0.0 | 1.6 | 0.00 | 0.00 | 0.00 | 71 | 1014.0 |
| 20260505060036 | 13 | 0 | 0.0 | 1.6 | 0.00 | 0.00 | 0.00 | 70 | 1014.0 |
| 20260505055516 | 13 | 0 | 0.0 | 1.6 | 0.00 | 0.00 | 0.00 | 70 | 1013.8 |
| 20260505055015 | 13 | 0 | 0.0 | 0.0 | 0.00 | 0.00 | 0.00 | 69 | 1013.9 |
| 20260505054540 | 14 | 0 | 0.0 | 1.6 | 0.00 | 0.00 | 0.00 | 69 | 1013.9 |
| 20260505054016 | 14 | 0 | 0.0 | 1.6 | 0.00 | 0.00 | 0.00 | 70 | 1013.9 |
| 20260505053520 | 14 | 0 | 0.0 | 0.0 | 0.00 | 0.00 | 0.00 | 69 | 1013.9 |
| 20260505053034 | 14 | 0 | 0.0 | 0.0 | 0.00 | 0.00 | 0.00 | 69 | 1013.9 |
| 20260505052516 | 14 | 0 | 0.0 | 0.0 | 0.00 | 0.00 | 0.00 | 69 | 1013.9 |
| 20260505052013 | 14 | 0 | 0.0 | 0.0 | 0.00 | 0.00 | 0.00 | 69 | 1014.1 |
| 20260505051532 | 14 | 0 | 0.0 | 0.0 | 0.00 | 0.00 | 0.00 | 69 | 1013.9 |
| 20260505051016 | 14 | 0 | 0.0 | 1.6 | 0.00 | 0.00 | 0.00 | 69 | 1013.9 |
| 20260505050521 | 14 | 0 | 0.0 | 1.6 | 0.00 | 0.00 | 0.00 | 69 | 1013.9 |
| 20260505041548 | 15 | 0 | 0.0 | 1.6 | 0.00 | 0.00 | 0.00 | 65 | 1013.7 |
| 20260505041017 | 16 | 0 | 0.0 | 1.6 | 0.00 | 0.00 | 0.00 | 64 | 1013.7 |
| 20260505040516 | 16 | 0 | 0.0 | 0.0 | 0.00 | 0.00 | 0.00 | 64 | 1013.8 |
| 20260505040040 | 16 | 0 | 0.0 | 1.6 | 0.00 | 0.00 | 0.00 | 64 | 1013.7 |
| 20260505035516 | 16 | 0 | 0.0 | 1.6 | 0.00 | 0.00 | 0.00 | 63 | 1013.7 |
| 20260505035016 | 16 | 0 | 0.0 | 1.6 | 0.00 | 0.00 | 0.00 | 63 | 1013.7 |
| 20260505034532 | 16 | 0 | 0.0 | 1.6 | 0.00 | 0.00 | 0.00 | 63 | 1013.8 |
| 20260505034016 | 16 | 0 | 0.0 | 6.4 | 0.00 | 0.00 | 0.00 | 62 | 1013.9 |
| 20260505033514 | 17 | 260 | 0.0 | 6.4 | 0.00 | 0.00 | 0.00 | 62 | 1013.9 |
| 20260505033034 | 17 | 224 | 0.0 | 4.8 | 0.00 | 0.00 | 0.00 | 61 | 1014.0 |
| 20260505032516 | 17 | 266 | 0.0 | 6.4 | 0.00 | 0.00 | 0.00 | 61 | 1014.0 |
| 20260505032017 | 17 | 212 | 1.6 | 11.3 | 0.00 | 0.00 | 0.00 | 61 | 1014.0 |
| 20260505031541 | 17 | 224 | 3.2 | 11.3 | 0.00 | 0.00 | 0.00 | 62 | 1014.1 |
| 20260505031015 | 17 | 283 | 4.8 | 12.9 | 0.00 | 0.00 | 0.00 | 62 | 1014.1 |
| 20260505030517 | 17 | 285 | 3.2 | 14.5 | 0.00 | 0.00 | 0.00 | 62 | 1014.1 |
| 20260505030035 | 17 | 244 | 3.2 | 14.5 | 0.00 | 0.00 | 0.00 | 62 | 1014.1 |
| 20260505025517 | 17 | 193 | 1.6 | 9.7 | 0.00 | 0.00 | 0.00 | 62 | 1014.2 |
| 20260505025021 | 16 | 248 | 1.6 | 9.7 | 0.00 | 0.00 | 0.00 | 62 | 1014.2 |
| 20260505024533 | 16 | 226 | 1.6 | 9.7 | 0.00 | 0.00 | 0.00 | 62 | 1014.2 |
| 20260505024016 | 16 | 242 | 0.0 | 4.8 | 0.00 | 0.00 | 0.00 | 62 | 1014.1 |
| 20260505023516 | 16 | 250 | 0.0 | 3.2 | 0.00 | 0.00 | 0.00 | 62 | 1014.2 |
| 20260505023031 | 16 | 229 | 0.0 | 3.2 | 0.00 | 0.00 | 0.00 | 61 | 1014.1 |
| 20260505022516 | 17 | 0 | 0.0 | 1.6 | 0.00 | 0.00 | 0.00 | 61 | 1014.1 |
| 20260505022016 | 17 | 0 | 0.0 | 3.2 | 0.00 | 0.00 | 0.00 | 61 | 1014.2 |
| 20260505021534 | 17 | 279 | 0.0 | 4.8 | 0.00 | 0.00 | 0.00 | 60 | 1014.1 |
| 20260505021016 | 17 | 0 | 1.6 | 4.8 | 0.00 | 0.00 | 0.00 | 60 | 1014.1 |
| 20260505020513 | 17 | 269 | 1.6 | 6.4 | 0.00 | 0.00 | 0.00 | 60 | 1014.1 |
| 20260505020032 | 17 | 266 | 1.6 | 6.4 | 0.00 | 0.00 | 0.00 | 60 | 1014.0 |
| 20260505015517 | 17 | 264 | 1.6 | 6.4 | 0.00 | 0.00 | 0.00 | 60 | 1014.0 |
| 20260505015014 | 17 | 261 | 3.2 | 6.4 | 0.00 | 0.00 | 0.00 | 60 | 1013.9 |
| 20260505014548 | 17 | 276 | 1.6 | 4.8 | 0.00 | 0.00 | 0.00 | 60 | 1013.8 |
| 20260505014016 | 17 | 293 | 1.6 | 4.8 | 0.00 | 0.00 | 0.00 | 60 | 1013.9 |
| 20260505013516 | 17 | 260 | 1.6 | 4.8 | 0.00 | 0.00 | 0.00 | 61 | 1013.8 |
| 20260505013033 | 17 | 262 | 0.0 | 4.8 | 0.00 | 0.00 | 0.00 | 61 | 1013.8 |
| 20260505012516 | 17 | 0 | 0.0 | 1.6 | 0.00 | 0.00 | 0.00 | 61 | 1013.7 |
| 20260505012016 | 17 | 259 | 0.0 | 1.6 | 0.00 | 0.00 | 0.00 | 61 | 1013.8 |
| 20260505011532 | 17 | 355 | 0.0 | 1.6 | 0.00 | 0.00 | 0.00 | 61 | 1013.7 |
| 20260505011017 | 17 | 0 | 0.0 | 1.6 | 0.00 | 0.00 | 0.00 | 61 | 1013.6 |
| 20260505010516 | 17 | 292 | 0.0 | 1.6 | 0.00 | 0.00 | 0.00 | 61 | 1013.6 |
| 20260505010034 | 17 | 268 | 0.0 | 1.6 | 0.00 | 0.00 | 0.00 | 60 | 1013.6 |
| 20260505005516 | 17 | 0 | 0.0 | 0.0 | 0.00 | 0.00 | 0.00 | 58 | 1013.6 |
| 20260505005017 | 18 | 0 | 0.0 | 1.6 | 0.00 | 0.00 | 0.00 | 57 | 1013.6 |
| 20260505004538 | 18 | 0 | 0.0 | 1.6 | 0.00 | 0.00 | 0.00 | 56 | 1013.5 |
| 20260505004016 | 18 | 0 | 0.0 | 1.6 | 0.00 | 0.00 | 0.00 | 54 | 1013.5 |
| 20260505003515 | 19 | 0 | 0.0 | 0.0 | 0.00 | 0.00 | 0.00 | 53 | 1013.4 |
| 20260505003032 | 19 | 0 | 0.0 | 0.0 | 0.00 | 0.00 | 0.00 | 52 | 1013.3 |
| 20260505002516 | 20 | 0 | 0.0 | 0.0 | 0.00 | 0.00 | 0.00 | 50 | 1013.3 |
| 20260505002017 | 20 | 0 | 0.0 | 1.6 | 0.00 | 0.00 | 0.00 | 49 | 1013.4 |
| 20260505001532 | 21 | 0 | 0.0 | 1.6 | 0.00 | 0.00 | 0.00 | 49 | 1013.3 |
| 20260505001017 | 21 | 0 | 0.0 | 3.2 | 0.00 | 0.00 | 0.00 | 49 | 1013.3 |
| 20260505000519 | 21 | 285 | 0.0 | 3.2 | 0.00 | 0.00 | 0.00 | 50 | 1013.2 |
| 20260505000045 | 21 | 277 | 0.0 | 3.2 | 0.00 | 0.00 | 0.00 | 49 | 1013.2 |
| 20260504235516 | 21 | 289 | 1.6 | 3.2 | 0.00 | 0.00 | 0.00 | 50 | 1013.1 |
| 20260504235018 | 21 | 283 | 1.6 | 4.8 | 0.00 | 0.00 | 0.00 | 48 | 1013.1 |
| 20260504234542 | 21 | 288 | 1.6 | 4.8 | 0.00 | 0.00 | 0.00 | 48 | 1013.1 |
| 20260504234016 | 21 | 281 | 1.6 | 11.3 | 0.00 | 0.00 | 0.00 | 46 | 1013.1 |
| 20260504233516 | 21 | 273 | 3.2 | 11.3 | 0.00 | 0.00 | 0.00 | 45 | 1013.1 |
| 20260504233048 | 21 | 266 | 6.4 | 11.3 | 0.00 | 0.00 | 0.00 | 45 | 1013.2 |
| 20260504232517 | 21 | 275 | 6.4 | 11.3 | 0.00 | 0.00 | 0.00 | 45 | 1013.1 |
| 20260504232015 | 21 | 285 | 4.8 | 11.3 | 0.00 | 0.00 | 0.00 | 45 | 1013.1 |
| 20260504231534 | 22 | 280 | 6.4 | 14.5 | 0.00 | 0.00 | 0.00 | 44 | 1013.1 |
| 20260504231016 | 22 | 257 | 8.0 | 14.5 | 0.00 | 0.00 | 0.00 | 45 | 1013.1 |
| 20260504230516 | 22 | 289 | 6.4 | 14.5 | 0.00 | 0.00 | 0.00 | 43 | 1013.1 |
| 20260504230039 | 22 | 290 | 8.0 | 14.5 | 0.00 | 0.00 | 0.00 | 43 | 1013.0 |
| 20260504225517 | 22 | 245 | 6.4 | 14.5 | 0.00 | 0.00 | 0.00 | 43 | 1013.1 |
| 20260504225016 | 22 | 233 | 8.0 | 16.1 | 0.00 | 0.00 | 0.00 | 43 | 1013.1 |
| 20260504224537 | 22 | 264 | 4.8 | 16.1 | 0.00 | 0.00 | 0.00 | 43 | 1013.1 |
| 20260504224016 | 22 | 262 | 8.0 | 16.1 | 0.00 | 0.00 | 0.00 | 41 | 1013.2 |
| 20260504223516 | 23 | 282 | 8.0 | 19.3 | 0.00 | 0.00 | 0.00 | 41 | 1013.2 |
| 20260504223053 | 23 | 255 | 8.0 | 19.3 | 0.00 | 0.00 | 0.00 | 42 | 1013.2 |
| 20260504222516 | 23 | 266 | 12.9 | 19.3 | 0.00 | 0.00 | 0.00 | 41 | 1013.2 |
| 20260504222020 | 24 | 255 | 8.0 | 14.5 | 0.00 | 0.00 | 0.00 | 44 | 1013.2 |
| 20260504221534 | 24 | 283 | 6.4 | 19.3 | 0.00 | 0.00 | 0.00 | 44 | 1013.2 |
| 20260504221018 | 24 | 268 | 9.7 | 19.3 | 0.00 | 0.00 | 0.00 | 43 | 1013.2 |
| 20260504220514 | 24 | 274 | 9.7 | 17.7 | 0.00 | 0.00 | 0.00 | 44 | 1013.2 |
| 20260504220038 | 23 | 278 | 9.7 | 16.1 | 0.00 | 0.00 | 0.00 | 46 | 1013.2 |
| 20260504215517 | 23 | 271 | 9.7 | 19.3 | 0.00 | 0.00 | 0.00 | 46 | 1013.1 |
| 20260504215016 | 23 | 279 | 9.7 | 22.5 | 0.00 | 0.00 | 0.00 | 43 | 1013.1 |
| 20260504214533 | 23 | 290 | 12.9 | 22.5 | 0.00 | 0.00 | 0.00 | 42 | 1013.1 |
| 20260504214016 | 24 | 293 | 9.7 | 22.5 | 0.00 | 0.00 | 0.00 | 45 | 1013.2 |
| 20260504213516 | 24 | 243 | 11.3 | 20.9 | 0.00 | 0.00 | 0.00 | 43 | 1013.2 |
| 20260504213046 | 24 | 259 | 12.9 | 20.9 | 0.00 | 0.00 | 0.00 | 45 | 1013.2 |
| 20260504212520 | 24 | 278 | 9.7 | 20.9 | 0.00 | 0.00 | 0.00 | 45 | 1013.2 |
| 20260504212018 | 24 | 244 | 8.0 | 22.5 | 0.00 | 0.00 | 0.00 | 44 | 1013.3 |
| 20260504211536 | 24 | 243 | 11.3 | 22.5 | 0.00 | 0.00 | 0.00 | 44 | 1013.4 |
| 20260504211017 | 24 | 281 | 14.5 | 22.5 | 0.00 | 0.00 | 0.00 | 41 | 1013.4 |
| 20260504210517 | 24 | 257 | 8.0 | 20.9 | 0.00 | 0.00 | 0.00 | 45 | 1013.4 |
| 20260504210038 | 24 | 278 | 9.7 | 19.3 | 0.00 | 0.00 | 0.00 | 43 | 1013.5 |
| 20260504205517 | 24 | 240 | 9.7 | 20.9 | 0.00 | 0.00 | 0.00 | 45 | 1013.7 |
| 20260504205017 | 23 | 287 | 9.7 | 22.5 | 0.00 | 0.00 | 0.00 | 45 | 1013.7 |
| 20260504204543 | 24 | 280 | 12.9 | 22.5 | 0.00 | 0.00 | 0.00 | 45 | 1013.8 |
| 20260504204021 | 23 | 232 | 6.4 | 19.3 | 0.00 | 0.00 | 0.00 | 46 | 1013.8 |
| 20260504203514 | 23 | 248 | 9.7 | 19.3 | 0.00 | 0.00 | 0.00 | 46 | 1013.8 |
| 20260504203033 | 23 | 274 | 8.0 | 19.3 | 0.00 | 0.00 | 0.00 | 47 | 1013.9 |
| 20260504202516 | 23 | 287 | 9.7 | 24.1 | 0.00 | 0.00 | 0.00 | 46 | 1013.9 |
| 20260504202014 | 23 | 272 | 14.5 | 24.1 | 0.00 | 0.00 | 0.00 | 45 | 1013.8 |
| 20260504201535 | 24 | 282 | 8.0 | 19.3 | 0.00 | 0.00 | 0.00 | 44 | 1013.9 |
| 20260504201020 | 24 | 247 | 9.7 | 19.3 | 0.00 | 0.00 | 0.00 | 43 | 1014.0 |
| 20260504200514 | 24 | 241 | 11.3 | 19.3 | 0.00 | 0.00 | 0.00 | 46 | 1013.9 |
| 20260504200034 | 25 | 236 | 6.4 | 17.7 | 0.00 | 0.00 | 0.00 | 45 | 1014.0 |
| 20260504195516 | 25 | 205 | 9.7 | 17.7 | 0.00 | 0.00 | 0.00 | 45 | 1014.2 |
| 20260504195016 | 24 | 141 | 1.6 | 17.7 | 0.00 | 0.00 | 0.00 | 51 | 1014.3 |
| 20260504194532 | 23 | 205 | 6.4 | 22.5 | 0.00 | 0.00 | 0.00 | 48 | 1014.4 |
| 20260504194018 | 23 | 205 | 9.7 | 22.5 | 0.00 | 0.00 | 0.00 | 47 | 1014.5 |
| 20260504193518 | 23 | 280 | 6.4 | 19.3 | 0.00 | 0.00 | 0.00 | 48 | 1014.5 |
| 20260504193031 | 23 | 283 | 8.0 | 19.3 | 0.00 | 0.00 | 0.00 | 51 | 1014.7 |
| 20260504192516 | 23 | 288 | 6.4 | 17.7 | 0.00 | 0.00 | 0.00 | 52 | 1014.8 |
| 20260504192016 | 23 | 271 | 8.0 | 17.7 | 0.00 | 0.00 | 0.00 | 52 | 1014.8 |
| 20260504191533 | 23 | 254 | 4.8 | 17.7 | 0.00 | 0.00 | 0.00 | 53 | 1014.9 |
| 20260504191017 | 23 | 260 | 9.7 | 16.1 | 0.00 | 0.00 | 0.00 | 50 | 1015.0 |
| 20260504190516 | 23 | 207 | 8.0 | 17.7 | 0.00 | 0.00 | 0.00 | 49 | 1015.1 |
| 20260504190037 | 23 | 291 | 6.4 | 17.7 | 0.00 | 0.00 | 0.00 | 52 | 1015.1 |
| 20260504185514 | 23 | 217 | 9.7 | 17.7 | 0.00 | 0.00 | 0.00 | 51 | 1015.3 |
| 20260504185015 | 22 | 278 | 9.7 | 16.1 | 0.00 | 0.00 | 0.00 | 55 | 1015.3 |
| 20260504184534 | 22 | 248 | 9.7 | 16.1 | 0.00 | 0.00 | 0.00 | 51 | 1015.4 |
| 20260504184015 | 22 | 304 | 8.0 | 17.7 | 0.00 | 0.00 | 0.00 | 51 | 1015.4 |
| 20260504183517 | 22 | 289 | 8.0 | 17.7 | 0.00 | 0.00 | 0.00 | 55 | 1015.5 |
| 20260504183034 | 22 | 284 | 8.0 | 16.1 | 0.00 | 0.00 | 0.00 | 53 | 1015.6 |
| 20260504182516 | 22 | 264 | 4.8 | 16.1 | 0.00 | 0.00 | 0.00 | 55 | 1015.7 |
| 20260504182017 | 22 | 278 | 4.8 | 19.3 | 0.00 | 0.00 | 0.00 | 51 | 1015.6 |
| 20260504181542 | 22 | 283 | 11.3 | 19.3 | 0.00 | 0.00 | 0.00 | 52 | 1015.7 |
| 20260504181015 | 22 | 200 | 6.4 | 16.1 | 0.00 | 0.00 | 0.00 | 55 | 1015.7 |
| 20260504180514 | 22 | 294 | 6.4 | 17.7 | 0.00 | 0.00 | 0.00 | 54 | 1015.7 |
| 20260504180033 | 22 | 282 | 9.7 | 17.7 | 0.00 | 0.00 | 0.00 | 51 | 1015.8 |
| 20260504175515 | 22 | 278 | 4.8 | 17.7 | 0.00 | 0.00 | 0.00 | 56 | 1015.8 |
| 20260504175015 | 21 | 281 | 9.7 | 17.7 | 0.00 | 0.00 | 0.00 | 51 | 1015.9 |
| 20260504174534 | 22 | 296 | 11.3 | 17.7 | 0.00 | 0.00 | 0.00 | 51 | 1016.0 |
| 20260504174015 | 22 | 268 | 8.0 | 12.9 | 0.00 | 0.00 | 0.00 | 51 | 1016.1 |
| 20260504173515 | 22 | 319 | 4.8 | 16.1 | 0.00 | 0.00 | 0.00 | 51 | 1016.1 |
| 20260504173032 | 22 | 239 | 8.0 | 16.1 | 0.00 | 0.00 | 0.00 | 52 | 1016.3 |
| 20260504172514 | 21 | 262 | 3.2 | 16.1 | 0.00 | 0.00 | 0.00 | 50 | 1016.4 |
| 20260504172017 | 21 | 312 | 8.0 | 16.1 | 0.00 | 0.00 | 0.00 | 54 | 1016.2 |
| 20260504171535 | 22 | 252 | 4.8 | 16.1 | 0.00 | 0.00 | 0.00 | 51 | 1016.4 |
| 20260504171016 | 21 | 235 | 4.8 | 19.3 | 0.00 | 0.00 | 0.00 | 51 | 1016.4 |
| 20260504170513 | 21 | 214 | 9.7 | 20.9 | 0.00 | 0.00 | 0.00 | 53 | 1016.5 |
| 20260504151015 | 17 | 267 | 8.0 | 19.3 | 0.00 | 0.00 | 0.00 | 56 | 1018.2 |
| 20260504150513 | 17 | 231 | 11.3 | 19.3 | 0.00 | 0.00 | 0.00 | 56 | 1018.2 |
| 20260504141015 | 16 | 211 | 0.0 | 1.6 | 0.00 | 0.00 | 0.00 | 62 | 1018.8 |
| 20260504140516 | 16 | 0 | 0.0 | 1.6 | 0.00 | 0.00 | 0.00 | 63 | 1018.9 |
| 20260504130516 | 13 | 186 | 1.6 | 9.7 | 0.00 | 0.00 | 0.00 | 66 | 1018.6 |
| 20260504110516 | 7 | 0 | 0.0 | 0.0 | 0.00 | 0.00 | 0.00 | 85 | 1017.6 |
| 20260504100517 | 6 | 0 | 0.0 | 0.0 | 0.00 | 0.00 | 0.00 | 84 | 1017.4 |
| 20260504081534 | 8 | 0 | 0.0 | 0.0 | 0.00 | 0.00 | 0.00 | 75 | 1017.9 |
| 20260504081016 | 8 | 0 | 0.0 | 0.0 | 0.00 | 0.00 | 0.00 | 75 | 1017.9 |
| 20260504080516 | 8 | 0 | 0.0 | 0.0 | 0.00 | 0.00 | 0.00 | 75 | 1018.1 |